LogID,LogEntryDate,LogEntryTime,LogEntrySeconds,01_LogMark,AFR,STFT,CurrentLTFT,IdleLTFT,CruiseLTFT,Load,O2Sensor2,IPW,AFRMAP,LoadTiming,TimingAdv,KnockSum,RPM,Baro,MAP,Boost,WGDC_Active,MAF,IDC,InVVTtarget,APP,ExVVTtarget,InVVTactual,ExVVTactual,TPS,IAT,WGDCCorr,Speed,Battery,ECT,MAT,MAPCalcs,IMAPCalcs,MAFCalcs,ChosenCalc,Custom
1,2024-06-19,05:09:39.65972,0.43542,0,0,-2.9296875,-12.5,-12.5,7.421875,18.75,,1.4,,18.75,11,0,828.125,15.30148157,5.1138057,-10.18767587,0,1.431384,0.966145833333333,10,,0,10.9375,1.09375,11.7647058823529,104,0,0,,199.4,134.6,21.875,0,18.75,18.75,
2,2024-06-19,05:09:39.75348,0.53835,0,0,-2.9296875,-12.5,-12.5,7.421875,18.75,,1.4,,18.75,10,0,843.75,15.30148157,5.1138057,-10.18767587,0,1.431384,0.984375,10,,0,10.9375,1.09375,11.7647058823529,104,0,0,,199.4,134.6,21.875,0,18.75,18.75,
3,2024-06-19,05:09:39.87848,0.65701,0,0,-2.9296875,-12.5,-12.5,7.421875,18.75,,1.3,,18.75,11,0,835.9375,15.30148157,5.2102926,-10.09118897,0,1.450992,0.905598958333333,10,,0,10.9375,1.09375,11.7647058823529,104,0,0,,199.4,134.6,21.875,0,18.75,18.75,
4,2024-06-19,05:09:39.98787,0.76999,0,0,-3.125,-12.5,-12.5,7.421875,18.75,,1.3,,18.75,10,0,843.75,15.30148157,5.2102926,-10.09118897,0,1.450992,0.9140625,10,,0,10.78125,1.09375,11.7647058823529,104,0,0,,199.4,134.6,21.875,0,18.75,18.75,
5,2024-06-19,05:09:40.08165,0.86843,0,0,-3.125,-12.5,-12.5,7.421875,18.75,,1.4,,18.75,10,0,851.5625,15.30148157,5.2102926,-10.09118897,0,1.431384,0.993489583333333,10,,0,10.78125,1.09375,11.7647058823529,104,0,0,,199.4,134.6,21.875,0,18.75,18.75,
6,2024-06-19,05:09:40.14412,0.92805,0,0,-3.125,-12.5,-12.5,7.421875,18.75,,1.4,,18.75,10,0,859.375,15.30148157,5.2102926,-10.09118897,0,1.431384,1.00260416666667,10,,0,10.78125,1.09375,11.7647058823529,104,0,0,,199.4,134.6,21.875,0,18.75,18.75,
7,2024-06-19,05:09:40.22222,1.00348,0,0,-3.3203125,-12.5,-12.5,7.421875,18.75,,1.4,,18.75,10,0,859.375,15.30148157,5.1138057,-10.18767587,0,1.431384,1.00260416666667,10,,0,10.78125,1.09375,11.7647058823529,104,0,0,,199.4,134.6,21.875,0,18.75,18.75,
8,2024-06-19,05:09:40.26910,1.04117,0,0,-3.3203125,-12.5,-12.5,7.421875,18.75,,1.4,,18.75,10,0,859.375,15.30148157,5.1138057,-10.18767587,0,1.431384,1.00260416666667,10,,0,10.78125,0.9375,11.7647058823529,104,0,0,,199.4,134.6,21.875,0,18.75,18.75,
9,2024-06-19,05:09:40.37852,1.15814,0,0,-3.3203125,-12.5,-12.5,7.421875,18.75,,1.3,,18.75,9,0,867.1875,15.30148157,5.0173188,-10.28416277,0,1.431384,0.939453125,10,,0,10.78125,0.9375,11.7647058823529,104,0,0,,199.4,134.6,21.875,0,18.75,18.75,
10,2024-06-19,05:09:40.47225,1.24922,0,0,-3.515625,-12.5,-12.5,7.421875,18.75,,1.3,,18.75,9,0,875,15.30148157,5.0173188,-10.28416277,0,1.431384,0.947916666666667,10,,0,10.78125,1.09375,11.7647058823529,104,0,0,,199.4,134.6,21.875,0,18.75,18.75,
11,2024-06-19,05:09:40.55038,1.32343,0,0,-3.515625,-12.5,-12.5,7.421875,18.75,,1.3,,18.75,9,0,875,15.30148157,5.1138057,-10.18767587,0,1.450992,0.947916666666667,10,,0,10.78125,1.09375,11.7647058823529,104,0,0,,199.4,134.6,21.875,0,18.75,18.75,
12,2024-06-19,05:09:40.62848,1.40062,0,0,-3.515625,-12.5,-12.5,7.421875,18.75,,1.3,,18.75,9,0,867.1875,15.30148157,5.1138057,-10.18767587,0,1.450992,0.939453125,10,,0,10.9375,1.25,11.7647058823529,104,0,0,,199.4,134.6,21.875,0,18.75,18.75,
13,2024-06-19,05:09:40.67535,1.45057,0,0,-3.7109375,-12.5,-12.5,7.421875,18.75,,1.3,,18.75,9,0,867.1875,15.30148157,5.1138057,-10.18767587,0,1.450992,0.939453125,10,,0,10.9375,1.25,11.7647058823529,104,0,0,,199.4,134.6,21.875,0,18.75,18.75,
14,2024-06-19,05:09:40.70661,1.4925,0,0,-3.7109375,-12.5,-12.5,7.421875,18.75,,1.3,,18.75,9,0,867.1875,15.30148157,5.1138057,-10.18767587,0,1.450992,0.939453125,10,,0,10.78125,1.09375,11.7647058823529,104,0,0,,199.4,134.6,21.875,0,18.75,18.75,
15,2024-06-19,05:09:40.80035,1.58671,0,0,-3.7109375,-12.5,-12.5,7.421875,18.75,,1.3,,18.75,10,0,859.375,15.30148157,5.2102926,-10.09118897,0,1.450992,0.930989583333333,10,,0,10.78125,1.09375,11.7647058823529,104,0,0,,199.4,134.6,21.875,0,18.75,18.75,
16,2024-06-19,05:09:40.83160,1.6151,0,0,-3.7109375,-12.5,-12.5,7.421875,18.75,,1.3,,18.75,10,0,859.375,15.30148157,5.2102926,-10.09118897,0,1.450992,0.930989583333333,10,,0,10.78125,1.09375,11.7647058823529,104,0,0,,199.4,134.6,21.875,0,18.75,18.75,
17,2024-06-19,05:09:40.92535,1.70492,0,0,-3.7109375,-12.5,-12.5,7.421875,18.75,,1.3,,18.75,10,0,843.75,15.30148157,5.1138057,-10.18767587,0,1.431384,0.9140625,10,,0,10.78125,1.09375,11.7647058823529,104,0,0,,199.4,134.6,21.875,0,18.75,18.75,
18,2024-06-19,05:09:41.00348,1.77989,0,0,-3.7109375,-12.5,-12.5,7.421875,18.75,,1.3,,18.75,10,0,851.5625,15.30148157,5.1138057,-10.18767587,0,1.431384,0.922526041666667,10,,0,10.9375,1.09375,11.7647058823529,104,0,0,,199.4,134.6,21.875,0,18.75,18.75,
19,2024-06-19,05:09:41.06598,1.84722,0,0,-3.90625,-12.5,-12.5,7.421875,18.75,,1.3,,18.75,10,0,851.5625,15.30148157,5.1138057,-10.18767587,0,1.450992,0.922526041666667,10,,0,10.9375,1.09375,11.7647058823529,104,0,0,,199.4,134.6,21.875,0,18.75,18.75,
20,2024-06-19,05:09:41.09723,1.87473,0,0,-3.90625,-12.5,-12.5,7.421875,18.75,,1.3,,18.75,10,0,851.5625,15.30148157,5.1138057,-10.18767587,0,1.450992,0.922526041666667,10,,0,10.9375,1.09375,11.7647058823529,104,0,0,,199.4,134.6,21.875,0,18.75,18.75,
21,2024-06-19,05:09:41.12848,1.90629,0,0,-3.90625,-12.5,-12.5,7.421875,18.75,,1.3,,18.75,10,0,851.5625,15.30148157,5.1138057,-10.18767587,0,1.450992,0.922526041666667,10,,0,10.9375,1.09375,11.7647058823529,104,0,0,,199.4,134.6,21.875,0,18.75,18.75,
22,2024-06-19,05:09:41.20665,1.98597,0,0,-3.90625,-12.5,-12.5,7.421875,18.75,,1.3,,18.75,10,0,843.75,15.30148157,5.1138057,-10.18767587,0,1.450992,0.9140625,10,,0,10.78125,1.09375,11.7647058823529,104,0,0,,199.4,134.6,21.875,0,18.75,18.75,
23,2024-06-19,05:09:41.30037,2.08475,0,0,-3.90625,-12.5,-12.5,7.421875,18.75,,1.3,,18.75,10,0,851.5625,15.30148157,5.0173188,-10.28416277,0,1.450992,0.922526041666667,10,,0,10.78125,1.09375,11.7647058823529,104,0,0,,199.4,134.6,21.875,0,18.75,18.75,
24,2024-06-19,05:09:41.36288,2.14967,0,0,-3.90625,-12.5,-12.5,7.421875,18.75,,1.3,,18.75,10,0,859.375,15.30148157,5.0173188,-10.28416277,0,1.450992,0.930989583333333,10,,0,10.78125,1.09375,11.7647058823529,104,0,0,,199.4,134.6,21.875,0,18.75,18.75,
25,2024-06-19,05:09:41.48784,2.26132,0,0,-4.1015625,-12.5,-12.5,7.421875,18.75,,1.3,,18.75,10,0,835.9375,15.30148157,5.1138057,-10.18767587,0,1.450992,0.905598958333333,10,,0,10.78125,1.09375,11.7647058823529,104,0,0,,199.4,134.6,21.875,0,18.75,18.75,
26,2024-06-19,05:09:41.55035,2.32405,0,0,-4.1015625,-12.5,-12.5,7.421875,18.75,,1.3,,18.75,10,0,843.75,15.30148157,5.1138057,-10.18767587,0,1.450992,0.9140625,10,,0,10.78125,1.09375,11.7647058823529,104,0,0,,199.4,134.6,21.875,0,18.75,18.75,
27,2024-06-19,05:09:41.61285,2.38522,0,0,-4.1015625,-12.5,-12.5,7.421875,18.75,,1.3,,18.75,10,0,843.75,15.30148157,5.0173188,-10.28416277,0,1.450992,0.9140625,10,,0,10.78125,1.09375,11.7647058823529,104,0,0,,199.4,134.6,21.875,0,18.75,18.75,
28,2024-06-19,05:09:41.65972,2.43913,0,0,-4.296875,-12.5,-12.5,7.421875,18.75,,1.3,,18.75,10,0,843.75,15.30148157,5.0173188,-10.28416277,0,1.450992,0.9140625,10,,0,10.78125,1.09375,11.7647058823529,104,0,0,,199.4,134.6,21.875,0,18.75,18.75,
29,2024-06-19,05:09:41.72222,2.50163,0,0,-4.296875,-12.5,-12.5,7.421875,18.75,,1.3,,18.75,10,0,843.75,15.30148157,5.2102926,-10.09118897,0,1.450992,0.9140625,10,,0,10.78125,1.09375,11.7647058823529,104,0,0,,199.4,134.6,21.875,0,18.75,18.75,
30,2024-06-19,05:09:41.80036,2.58353,0,0,-4.296875,-12.5,-12.5,7.421875,18.75,,1.3,,18.75,11,0,828.125,15.30148157,5.2102926,-10.09118897,0,1.450992,0.897135416666667,10,,0,10.78125,1.25,11.7647058823529,104,0,0,,199.4,134.6,21.875,0,18.75,18.75,
31,2024-06-19,05:09:41.89412,2.67468,0,0,-4.296875,-12.5,-12.5,7.421875,18.75,,1.3,,18.75,10,0,843.75,15.30148157,5.2102926,-10.09118897,0,1.431384,0.9140625,10,,0,10.78125,1.25,11.7647058823529,104,0,0,,199.4,134.6,21.875,0,18.75,18.75,
32,2024-06-19,05:09:41.98785,2.76902,0,0,-4.296875,-12.5,-12.5,7.421875,18.75,,1.3,,18.75,11,0,835.9375,15.30148157,5.2102926,-10.09118897,0,1.431384,0.905598958333333,10,,0,10.9375,1.25,11.7647058823529,104,0,0,,199.4,134.6,21.875,0,18.75,18.75,
33,2024-06-19,05:09:42.08160,2.8575,0,0,-4.296875,-12.5,-12.5,7.421875,18.75,,1.3,,18.75,11,0,828.125,15.30148157,5.0173188,-10.28416277,0,1.431384,0.897135416666667,10,,0,10.9375,1.25,11.7647058823529,104,0,0,,199.4,134.6,21.875,0,18.75,18.75,
34,2024-06-19,05:09:42.17535,2.95771,0,0,-4.4921875,-12.5,-12.5,7.421875,18.75,,1.3,,18.75,10,0,843.75,15.30148157,5.0173188,-10.28416277,0,1.431384,0.9140625,10,,0,10.78125,1.09375,11.7647058823529,104,0,0,,199.4,134.6,21.875,0,18.75,18.75,
35,2024-06-19,05:09:42.20663,2.9906,0,0,-4.4921875,-12.5,-12.5,7.421875,18.75,,1.3,,18.75,10,0,843.75,15.30148157,5.0173188,-10.28416277,0,1.431384,0.9140625,10,,0,10.78125,1.09375,11.7647058823529,105.8,0,0,,199.4,134.6,21.875,0,18.75,18.75,
36,2024-06-19,05:09:42.25351,3.03449,0,0,-4.4921875,-12.5,-12.5,7.421875,18.75,,1.3,,18.75,10,0,843.75,15.30148157,5.0173188,-10.28416277,0,1.431384,0.9140625,10,,0,10.78125,1.25,11.7647058823529,105.8,0,0,,199.4,134.6,21.875,0,18.75,18.75,
37,2024-06-19,05:09:42.37851,3.15666,0,0,-4.6875,-12.5,-12.5,7.421875,18.75,,1.3,,18.75,11,0,828.125,15.30148157,5.2102926,-10.09118897,0,1.431384,0.897135416666667,10,,0,10.78125,1.25,11.7647058823529,105.8,0,0,,199.4,134.6,21.875,0,18.75,18.75,
38,2024-06-19,05:09:42.47222,3.24526,0,0,-4.6875,-12.5,-12.5,7.421875,18.75,,1.3,,18.75,10,0,843.75,15.30148157,5.2102926,-10.09118897,0,1.431384,0.9140625,10,,0,10.9375,1.25,11.7647058823529,104,0,0,,199.4,134.6,21.875,0,18.75,18.75,
39,2024-06-19,05:09:42.56602,3.35215,0,0,-4.6875,-12.5,-12.5,7.421875,18.75,,1.3,,18.75,11,0,835.9375,15.30148157,5.0173188,-10.28416277,0,1.431384,0.905598958333333,10,,0,10.9375,1.25,11.7647058823529,104,0,0,,199.4,134.6,21.875,0,18.75,18.75,
40,2024-06-19,05:09:42.67535,3.44975,0,0,-4.8828125,-12.5,-12.5,7.421875,18.75,,1.3,,18.75,12,0,820.3125,15.30148157,5.0173188,-10.28416277,0,1.431384,0.888671875,10,,0,10.78125,1.09375,11.7647058823529,104,0,0,,199.4,134.6,21.875,0,18.75,18.75,
41,2024-06-19,05:09:42.78472,3.5569,0,0,-4.8828125,-12.5,-12.5,7.421875,18.75,,1.3,,18.75,11,0,828.125,15.30148157,5.2102926,-10.09118897,0,1.450992,0.897135416666667,10,,0,10.78125,1.09375,11.7647058823529,105.8,0,0,,199.4,134.6,21.875,0,18.75,18.75,
42,2024-06-19,05:09:42.81597,3.59009,0,0,-4.8828125,-12.5,-12.5,7.421875,18.75,,1.3,,18.75,11,0,828.125,15.30148157,5.2102926,-10.09118897,0,1.450992,0.897135416666667,10,,0,10.78125,1.09375,11.7647058823529,105.8,0,0,,197.6,134.6,21.875,0,18.75,18.75,
43,2024-06-19,05:09:42.86285,3.64025,0,0,-4.8828125,-12.5,-12.5,7.421875,18.75,,1.3,,18.75,11,0,828.125,15.30148157,5.2102926,-10.09118897,0,1.431384,0.897135416666667,10,,0,10.78125,1.09375,11.7647058823529,105.8,0,0,,197.6,134.6,21.875,0,18.75,18.75,
44,2024-06-19,05:09:42.92535,3.70017,0,0,-4.8828125,-12.5,-12.5,7.421875,18.75,,1.3,,18.75,11,0,820.3125,15.30148157,5.2102926,-10.09118897,0,1.431384,0.888671875,10,,0,10.78125,1.09375,11.7647058823529,105.8,0,0,,197.6,134.6,21.875,0,18.75,18.75,
45,2024-06-19,05:09:43.01910,3.79383,0,0,-4.8828125,-12.5,-12.5,7.421875,18.75,,1.3,,18.75,11,0,828.125,15.30148157,5.1138057,-10.18767587,0,1.431384,0.897135416666667,10,,0,10.78125,1.09375,11.7647058823529,105.8,0,0,,197.6,134.6,21.875,0,18.75,18.75,
46,2024-06-19,05:09:43.09724,3.88108,0,0,-5.078125,-12.5,-12.5,7.421875,18.75,,1.3,,18.75,11,0,820.3125,15.30148157,5.1138057,-10.18767587,0,1.431384,0.888671875,10,,0,10.78125,1.09375,11.7647058823529,105.8,0,0,,197.6,134.6,21.875,0,18.75,18.75,
47,2024-06-19,05:09:43.17537,3.95513,0,0,-5.078125,-12.5,-12.5,7.421875,18.75,,1.3,,18.75,11,0,820.3125,15.30148157,5.2102926,-10.09118897,0,1.450992,0.888671875,10,,0,10.78125,1.09375,11.7647058823529,105.8,0,0,,197.6,134.6,21.875,0,18.75,18.75,
48,2024-06-19,05:09:43.20660,3.98947,0,0,-5.078125,-12.5,-12.5,7.421875,18.75,,1.3,,18.75,11,0,820.3125,15.30148157,5.2102926,-10.09118897,0,1.450992,0.888671875,10,,0,10.78125,1.09375,11.7647058823529,105.8,0,0,,197.6,134.6,21.875,0,18.75,18.75,
49,2024-06-19,05:09:43.31598,4.09094,0,0,-2.734375,-12.5,-12.5,7.421875,18.75,,1.3,,18.75,11,0,828.125,15.30148157,5.2102926,-10.09118897,0,1.431384,0.897135416666667,10,,0,10.78125,1.09375,11.7647058823529,105.8,0,0,,197.6,134.6,21.875,0,18.75,18.75,
50,2024-06-19,05:09:43.37847,4.16262,0,0,-2.734375,-12.5,-12.5,7.421875,18.75,,1.3,,18.75,11,0,820.3125,15.30148157,5.2102926,-10.09118897,0,1.431384,0.888671875,10,,0,10.78125,1.25,11.7647058823529,105.8,0,0,,197.6,134.6,21.875,0,18.75,18.75,
51,2024-06-19,05:09:43.44098,4.22632,0,0,-2.734375,-12.5,-12.5,7.421875,18.75,,1.3,,18.75,11,0,828.125,15.30148157,5.2102926,-10.09118897,0,1.431384,0.897135416666667,10,,0,10.78125,1.25,11.7647058823529,105.8,0,0,,197.6,134.6,21.875,0,18.75,18.75,
52,2024-06-19,05:09:43.50350,4.28951,0,0,-2.9296875,-12.5,-12.5,7.421875,18.75,,1.3,,18.75,11,0,828.125,15.30148157,5.2102926,-10.09118897,0,1.431384,0.897135416666667,10,,0,10.9375,1.09375,11.7647058823529,105.8,0,0,,197.6,134.6,21.875,0,18.75,18.75,
53,2024-06-19,05:09:43.59727,4.38232,0,0,-2.9296875,-12.5,-12.5,7.421875,18.75,,1.3,,18.75,10,0,835.9375,15.30148157,5.2102926,-10.09118897,0,1.450992,0.905598958333333,10,,0,10.9375,1.09375,11.7647058823529,105.8,0,0,,197.6,134.6,21.875,0,18.75,18.75,
54,2024-06-19,05:09:43.69097,4.46776,0,0,-2.9296875,-12.5,-12.5,7.421875,18.75,,1.3,,18.75,11,0,828.125,15.30148157,5.2102926,-10.09118897,0,1.450992,0.897135416666667,10,,0,10.78125,1.09375,11.7647058823529,105.8,0,0,,197.6,134.6,21.875,0,18.75,18.75,
55,2024-06-19,05:09:43.80040,4.58006,0,0,-2.9296875,-12.5,-12.5,7.421875,18.75,,1.3,,18.75,11,0,835.9375,15.30148157,5.1138057,-10.18767587,0,1.431384,0.905598958333333,10,,0,10.78125,1.09375,11.7647058823529,105.8,0,0,,197.6,134.6,21.875,0,18.75,18.75,
56,2024-06-19,05:09:43.83160,4.61861,0,0,-2.9296875,-12.5,-12.5,7.421875,18.75,,1.3,,18.75,11,0,835.9375,15.30148157,5.1138057,-10.18767587,0,1.431384,0.905598958333333,10,,0,10.9375,1.09375,11.7647058823529,105.8,0,0,,197.6,134.6,21.875,0,18.75,18.75,
57,2024-06-19,05:09:43.92537,4.70369,0,0,-2.9296875,-12.5,-12.5,7.421875,18.75,,1.3,,18.75,10,0,835.9375,15.30148157,5.3067795,-9.99470207,0,1.450992,0.905598958333333,10,,0,10.9375,1.09375,11.7647058823529,105.8,0,0,,197.6,134.6,21.875,0,18.75,18.75,
58,2024-06-19,05:09:44.00347,4.78484,0,0,-3.125,-12.5,-12.5,7.421875,18.75,,1.3,,18.75,11,0,835.9375,15.30148157,5.3067795,-9.99470207,0,1.450992,0.905598958333333,10,,0,10.78125,1.09375,11.7647058823529,105.8,0,0,,197.6,134.6,21.875,0,20.3125,18.75,
59,2024-06-19,05:09:44.08160,4.85807,0,0,-3.125,-12.5,-12.5,7.421875,18.75,,1.3,,18.75,12,0,812.5,15.30148157,5.3067795,-9.99470207,0,1.450992,0.880208333333333,10,,0,10.78125,1.09375,11.7647058823529,105.8,0,0,,197.6,134.6,21.875,0,20.3125,18.75,
60,2024-06-19,05:09:44.17537,4.95969,0,0,-3.125,-12.5,-12.5,7.421875,20.3125,,1.4,,20.3125,11,0,820.3125,15.30148157,5.3067795,-9.99470207,0,1.450992,0.95703125,10,,0,10.78125,1.09375,11.7647058823529,105.8,0,0,,197.6,134.6,21.875,0,18.75,18.75,
61,2024-06-19,05:09:44.31603,5.09304,0,0,-3.3203125,-12.5,-12.5,7.421875,18.75,,1.3,,18.75,11,0,820.3125,15.30148157,5.2102926,-10.09118897,0,1.450992,0.888671875,10,,0,10.78125,1.09375,11.7647058823529,105.8,0,0,,197.6,134.6,21.875,0,18.75,18.75,
62,2024-06-19,05:09:44.34723,5.12463,0,0,-3.3203125,-12.5,-12.5,7.421875,18.75,,1.3,,18.75,11,0,820.3125,15.30148157,5.2102926,-10.09118897,0,1.450992,0.888671875,10,,0,10.78125,1.09375,11.7647058823529,105.8,0,0,,197.6,134.6,21.875,0,20.3125,18.75,
63,2024-06-19,05:09:44.44097,5.22293,0,0,-3.3203125,-12.5,-12.5,7.421875,18.75,,1.4,,18.75,11,0,828.125,15.30148157,5.2102926,-10.09118897,0,1.431384,0.966145833333333,10,,0,10.78125,1.09375,11.7647058823529,105.8,0,0,,197.6,134.6,21.875,0,18.75,18.75,
64,2024-06-19,05:09:44.56600,5.34241,0,0,-3.515625,-12.5,-12.5,7.421875,18.75,,1.3,,18.75,10,0,843.75,15.30148157,5.2102926,-10.09118897,0,1.431384,0.9140625,10,,0,10.78125,1.09375,11.7647058823529,105.8,0,0,,197.6,134.6,21.875,0,18.75,18.75,
65,2024-06-19,05:09:44.59726,5.37289,0,0,-3.515625,-12.5,-12.5,7.421875,18.75,,1.3,,18.75,10,0,843.75,15.30148157,5.2102926,-10.09118897,0,1.431384,0.9140625,10,,0,10.78125,1.09375,11.7647058823529,105.8,0,0,,197.6,134.6,21.875,0,18.75,18.75,
66,2024-06-19,05:09:44.62847,5.40421,0,0,-3.515625,-12.5,-12.5,7.421875,18.75,,1.3,,18.75,10,0,843.75,15.30148157,5.2102926,-10.09118897,0,1.431384,0.9140625,10,,0,10.78125,1.09375,11.7647058823529,105.8,0,0,,197.6,134.6,21.875,0,18.75,18.75,
67,2024-06-19,05:09:44.70660,5.48053,0,0,-3.515625,-12.5,-12.5,7.421875,18.75,,1.3,,18.75,10,0,851.5625,15.30148157,5.2102926,-10.09118897,0,1.4706,0.922526041666667,10,,0,10.78125,1.09375,11.7647058823529,105.8,0,0,,197.6,134.6,21.875,0,18.75,18.75,
68,2024-06-19,05:09:44.75353,5.54022,0,0,-3.515625,-12.5,-12.5,7.421875,18.75,,1.3,,18.75,10,0,843.75,15.30148157,5.2102926,-10.09118897,0,1.4706,0.9140625,10,,0,10.78125,1.09375,11.7647058823529,105.8,0,0,,197.6,134.6,21.875,0,18.75,18.75,
69,2024-06-19,05:09:44.83159,5.61243,0,0,-3.515625,-12.5,-12.5,7.421875,18.75,,1.3,,18.75,10,0,843.75,15.30148157,5.3067795,-9.99470207,0,1.450992,0.9140625,10,,0,10.78125,1.09375,11.7647058823529,105.8,0,0,,197.6,134.6,21.875,0,18.75,18.75,
70,2024-06-19,05:09:44.90972,5.6969,0,0,-3.7109375,-12.5,-12.5,7.421875,18.75,,1.3,,18.75,10,0,851.5625,15.30148157,5.3067795,-9.99470207,0,1.450992,0.922526041666667,10,,0,10.9375,1.25,11.7647058823529,105.8,0,0,,197.6,134.6,21.875,0,18.75,18.75,
71,2024-06-19,05:09:44.97227,5.75687,0,0,-3.7109375,-12.5,-12.5,7.421875,18.75,,1.3,,18.75,10,0,843.75,15.30148157,5.3067795,-9.99470207,0,1.450992,0.9140625,10,,0,10.9375,1.25,11.7647058823529,105.8,0,0,,197.6,134.6,21.875,0,18.75,18.75,
72,2024-06-19,05:09:45.03473,5.81601,0,0,-3.7109375,-12.5,-12.5,7.421875,18.75,,1.3,,18.75,11,0,843.75,15.30148157,5.3067795,-9.99470207,0,1.450992,0.9140625,10,,0,10.78125,1.09375,11.7647058823529,105.8,0,0,,197.6,134.6,21.875,0,20.3125,18.75,
73,2024-06-19,05:09:45.11286,5.89823,0,0,-3.90625,-12.5,-12.5,7.421875,18.75,,1.3,,18.75,11,0,828.125,15.30148157,5.3067795,-9.99470207,0,1.450992,0.897135416666667,10,,0,10.78125,1.09375,11.7647058823529,105.8,0,0,,197.6,134.6,21.875,0,20.3125,18.75,
74,2024-06-19,05:09:45.14410,5.93142,0,0,-3.90625,-12.5,-12.5,7.421875,18.75,,1.3,,18.75,11,0,828.125,15.30148157,5.3067795,-9.99470207,0,1.450992,0.897135416666667,10,,0,10.78125,1.09375,11.7647058823529,105.8,0,0,,197.6,134.6,21.875,0,20.3125,18.75,
75,2024-06-19,05:09:45.23788,6.01687,0,0,-3.90625,-12.5,-12.5,7.421875,18.75,,1.3,,18.75,11,0,820.3125,15.30148157,5.2102926,-10.09118897,0,1.450992,0.888671875,10,,0,10.78125,1.09375,11.7647058823529,105.8,0,0,,197.6,134.6,21.875,0,18.75,18.75,
76,2024-06-19,05:09:45.30039,6.08577,0,0,-3.90625,-12.5,-12.5,7.421875,18.75,,1.3,,18.75,11,0,828.125,15.30148157,5.2102926,-10.09118897,0,1.450992,0.897135416666667,10,,0,10.9375,1.09375,11.7647058823529,105.8,0,0,,197.6,134.6,21.875,0,18.75,18.75,
77,2024-06-19,05:09:45.36285,6.13659,0,0,-3.90625,-12.5,-12.5,7.421875,18.75,,1.3,,18.75,11,0,828.125,15.30148157,5.2102926,-10.09118897,0,1.431384,0.897135416666667,10,,0,10.9375,1.09375,11.7647058823529,105.8,0,0,,197.6,134.6,21.875,0,18.75,18.75,
78,2024-06-19,05:09:45.39412,6.16932,0,0,-3.90625,-12.5,-12.5,7.421875,18.75,,1.3,,18.75,11,0,828.125,15.30148157,5.2102926,-10.09118897,0,1.431384,0.897135416666667,10,,0,10.9375,1.09375,11.7647058823529,105.8,0,0,,197.6,134.6,21.875,0,18.75,18.75,
79,2024-06-19,05:09:45.47222,6.25665,0,0,-4.1015625,-12.5,-12.5,7.421875,18.75,,1.3,,18.75,11,0,828.125,15.30148157,5.3067795,-9.99470207,0,1.450992,0.897135416666667,10,,0,10.9375,1.09375,11.7647058823529,105.8,0,0,,197.6,134.6,21.875,0,18.75,18.75,
80,2024-06-19,05:09:45.56598,6.34105,0,0,-4.1015625,-12.5,-12.5,7.421875,18.75,,1.3,,18.75,10,0,835.9375,15.30148157,5.3067795,-9.99470207,0,1.450992,0.905598958333333,10,,0,10.78125,1.09375,11.7647058823529,105.8,0,0,,197.6,134.6,21.875,0,18.75,18.75,
81,2024-06-19,05:09:45.64414,6.42093,0,0,-4.1015625,-12.5,-12.5,7.421875,18.75,,1.3,,18.75,10,0,851.5625,15.30148157,5.3067795,-9.99470207,0,1.431384,0.922526041666667,10,,0,10.78125,1.09375,11.7647058823529,105.8,0,0,,197.6,134.6,21.875,0,18.75,18.75,
82,2024-06-19,05:09:45.67535,6.4487,0,0,-4.1015625,-12.5,-12.5,7.421875,18.75,,1.3,,18.75,10,0,851.5625,15.30148157,5.3067795,-9.99470207,0,1.431384,0.922526041666667,10,,0,10.78125,1.09375,11.7647058823529,105.8,0,0,,197.6,134.6,21.875,0,18.75,18.75,
83,2024-06-19,05:09:45.73788,6.51538,0,0,-4.1015625,-12.5,-12.5,7.421875,18.75,,1.3,,18.75,10,0,851.5625,15.30148157,5.1138057,-10.18767587,0,1.450992,0.922526041666667,10,,0,10.78125,1.09375,11.7647058823529,105.8,0,0,,197.6,134.6,21.875,0,18.75,18.75,
84,2024-06-19,05:09:45.80035,6.57735,0,0,-4.1015625,-12.5,-12.5,7.421875,18.75,,1.3,,18.75,10,0,843.75,15.30148157,5.1138057,-10.18767587,0,1.450992,0.9140625,10,,0,10.78125,1.09375,11.7647058823529,105.8,0,0,,197.6,134.6,21.875,0,18.75,18.75,
85,2024-06-19,05:09:45.84722,6.62457,0,0,-4.296875,-12.5,-12.5,7.421875,18.75,,1.3,,18.75,10,0,843.75,15.30148157,5.1138057,-10.18767587,0,1.450992,0.9140625,10,,0,10.78125,1.09375,11.7647058823529,105.8,0,0,,197.6,134.6,21.875,0,18.75,18.75,
86,2024-06-19,05:09:45.87850,6.65199,0,0,-4.296875,-12.5,-12.5,7.421875,18.75,,1.3,,18.75,10,0,843.75,15.30148157,5.1138057,-10.18767587,0,1.450992,0.9140625,10,,0,10.78125,1.09375,11.7647058823529,105.8,0,0,,197.6,134.6,21.875,0,18.75,18.75,
87,2024-06-19,05:09:45.92535,6.70848,0,0,-4.296875,-12.5,-12.5,7.421875,18.75,,1.3,,18.75,10,0,835.9375,15.30148157,5.1138057,-10.18767587,0,1.450992,0.905598958333333,10,,0,10.78125,1.09375,11.7647058823529,105.8,0,0,,197.6,134.6,21.875,0,18.75,18.75,
88,2024-06-19,05:09:45.95660,6.73692,0,0,-4.296875,-12.5,-12.5,7.421875,18.75,,1.3,,18.75,10,0,835.9375,15.30148157,5.1138057,-10.18767587,0,1.450992,0.905598958333333,10,,0,10.78125,1.09375,11.7647058823529,105.8,0,0,,197.6,134.6,21.875,0,18.75,18.75,
89,2024-06-19,05:09:46.03475,6.81452,0,0,-4.296875,-12.5,-12.5,7.421875,18.75,,1.3,,18.75,11,0,835.9375,15.30148157,5.4032664,-9.89821517,0,1.450992,0.905598958333333,10,,0,10.78125,1.09375,11.7647058823529,105.8,0,0,,197.6,134.6,21.875,0,20.3125,18.75,
90,2024-06-19,05:09:46.09728,6.88183,0,0,-4.296875,-12.5,-12.5,7.421875,18.75,,1.3,,18.75,12,0,804.6875,15.30148157,5.4032664,-9.89821517,0,1.450992,0.871744791666667,10,,0,10.78125,1.09375,11.7647058823529,105.8,0,0,,197.6,134.6,21.875,0,21.875,20.3125,
91,2024-06-19,05:09:46.25348,7.02645,0,0,-4.4921875,-12.5,-12.5,7.421875,20.3125,,1.3,,20.3125,12,0,820.3125,15.30148157,5.2102926,-10.09118897,0,1.431384,0.888671875,10,,0,10.78125,1.09375,11.7647058823529,105.8,0,0,,197.6,134.6,23.4375,0,18.75,18.75,
92,2024-06-19,05:09:46.33168,7.11049,0,0,-4.4921875,-12.5,-12.5,7.421875,20.3125,,1.3,,20.3125,11,0,835.9375,15.30148157,5.2102926,-10.09118897,0,1.431384,0.905598958333333,10,,0,10.9375,1.25,11.7647058823529,105.8,0,0,,197.6,134.6,21.875,0,18.75,18.75,
93,2024-06-19,05:09:46.44098,7.21973,0,0,-4.4921875,-12.5,-12.5,7.421875,20.3125,,1.3,,20.3125,12,0,820.3125,15.30148157,5.3067795,-9.99470207,0,1.4706,0.888671875,10,,0,10.9375,1.25,11.7647058823529,105.8,0,0,,197.6,134.6,21.875,0,18.75,20.3125,
94,2024-06-19,05:09:46.55035,7.3234,0,0,-4.296875,-12.5,-12.5,7.421875,20.3125,,1.3,,20.3125,11,0,835.9375,15.30148157,5.3067795,-9.99470207,0,1.4706,0.905598958333333,10,,0,10.78125,1.09375,11.7647058823529,105.8,0,0,,197.6,134.6,21.875,0,18.75,18.75,
95,2024-06-19,05:09:46.65973,7.43936,0,0,-4.296875,-12.5,-12.5,7.421875,18.75,,1.3,,18.75,12,0,812.5,15.30148157,5.3067795,-9.99470207,0,1.490208,0.880208333333333,10,,0,10.78125,1.09375,12.156862745098,105.8,0,0,,197.6,134.6,21.875,0,21.875,20.3125,